FW0475 Weather Reports


Display with metric or nautical units.
time (UTC)temp
F
wind
direction
speed
MPH
gust
MPH
rain 1hr
in
rain 24hr
in
rain mn
in
humidity
%
barometer
mb
20260507141836 44 316 4.0 8.0 0.00 0.00 0.00 63 1015.2
20260507141328 44 282 5.0 8.0 0.00 0.00 0.00 63 1015.2
20260507140821 44 306 4.0 8.0 0.00 0.00 0.00 63 1015.2
20260507140334 44 289 3.0 8.0 0.00 0.00 0.00 63 1015.2
20260507135849 43 281 4.0 8.0 0.00 0.00 0.00 63 1015.2
20260507135322 43 295 3.0 6.0 0.00 0.00 0.00 62 1015.1
20260507134840 43 280 3.0 6.0 0.00 0.00 0.00 63 1015.1
20260507134327 43 325 3.0 5.0 0.00 0.00 0.00 63 1015.1
20260507133840 43 306 2.0 5.0 0.00 0.00 0.00 63 1015.1
20260507133335 43 313 2.0 5.0 0.00 0.00 0.00 63 1015.2
20260507132820 43 296 3.0 5.0 0.00 0.00 0.00 63 1015.3
20260507132333 43 270 3.0 6.0 0.00 0.00 0.00 64 1015.2
20260507131829 43 281 4.0 5.0 0.00 0.00 0.00 64 1015.1
20260507131323 43 304 3.0 6.0 0.00 0.00 0.00 64 1015.1
20260507130816 43 282 3.0 7.0 0.00 0.00 0.00 64 1015.1
20260507130329 42 304 3.0 7.0 0.00 0.00 0.00 63 1014.9
20260507125822 42 298 3.0 6.0 0.00 0.00 0.00 62 1014.9
20260507125317 42 288 3.0 6.0 0.00 0.00 0.00 62 1014.7
20260507124814 42 305 4.0 6.0 0.00 0.00 0.00 62 1014.6
20260507124324 42 287 3.0 5.0 0.00 0.00 0.00 62 1014.6
20260507123819 42 300 2.0 5.0 0.00 0.00 0.00 62 1014.6
20260507123333 42 301 3.0 5.0 0.00 0.00 0.00 61 1014.5
20260507122843 42 288 3.0 5.0 0.00 0.00 0.00 61 1014.5
20260507122330 42 303 3.0 5.0 0.00 0.00 0.00 63 1014.4
20260507121827 41 260 2.0 5.0 0.00 0.00 0.00 64 1014.4
20260507121345 41 295 3.0 5.0 0.00 0.00 0.00 64 1014.4
20260507120838 41 296 2.0 6.0 0.00 0.00 0.00 65 1014.3
20260507120323 41 299 3.0 6.0 0.00 0.00 0.00 66 1014.3
20260507115831 41 283 3.0 5.0 0.00 0.00 0.00 66 1014.3
20260507115324 41 264 3.0 7.0 0.00 0.00 0.00 67 1014.2
20260507114835 41 260 3.0 7.0 0.00 0.00 0.00 67 1014.2
20260507114326 41 316 2.0 8.0 0.00 0.00 0.00 67 1014.2
20260507113822 41 285 3.0 8.0 0.00 0.00 0.00 67 1014.1
20260507113332 41 265 4.0 8.0 0.00 0.00 0.00 67 1014.2
20260507112827 41 281 4.0 8.0 0.00 0.00 0.00 67 1014.2
20260507112323 41 306 4.0 8.0 0.00 0.00 0.00 67 1014.1
20260507111836 41 260 4.0 8.0 0.00 0.00 0.00 67 1014.1
20260507111325 41 257 3.0 8.0 0.00 0.00 0.00 67 1014.1
20260507110836 41 292 5.0 8.0 0.00 0.00 0.00 67 1014.0
20260507110332 41 299 4.0 8.0 0.00 0.00 0.00 67 1013.9
20260507105839 41 273 4.0 8.0 0.00 0.00 0.00 67 1013.8
20260507105325 41 272 2.0 8.0 0.00 0.00 0.00 67 1013.7
20260507104820 41 261 4.0 8.0 0.00 0.00 0.00 67 1013.7
20260507104330 41 281 5.0 8.0 0.00 0.00 0.00 67 1013.8
20260507103815 41 269 4.0 7.0 0.00 0.00 0.00 67 1013.7
20260507103331 41 252 2.0 6.0 0.00 0.00 0.00 67 1013.7
20260507102845 41 273 3.0 4.0 0.00 0.00 0.00 67 1013.6
20260507102348 41 292 1.0 5.0 0.00 0.00 0.00 66 1013.6
20260507101825 41 290 3.0 5.0 0.00 0.00 0.00 66 1013.5
20260507101351 41 286 2.0 4.0 0.00 0.00 0.00 66 1013.4
20260507100834 41 298 2.0 4.0 0.00 0.00 0.00 66 1013.4
20260507100349 41 296 2.0 4.0 0.00 0.00 0.00 65 1013.5
20260507095820 41 298 2.0 4.0 0.00 0.00 0.00 65 1013.5
20260507095317 41 279 2.0 4.0 0.00 0.00 0.00 65 1013.5
20260507094831 41 296 2.0 5.0 0.00 0.00 0.00 64 1013.4
20260507094340 41 299 2.0 5.0 0.00 0.00 0.00 64 1013.5
20260507093824 42 279 3.0 6.0 0.00 0.00 0.00 64 1013.5
20260507093341 42 281 2.0 6.0 0.00 0.00 0.00 64 1013.5
20260507092825 42 292 2.0 4.0 0.00 0.00 0.00 63 1013.4
20260507092330 42 279 2.0 4.0 0.00 0.00 0.00 63 1013.4
20260507091823 42 302 3.0 4.0 0.00 0.00 0.00 63 1013.4
20260507091318 42 281 3.0 4.0 0.00 0.00 0.00 63 1013.5
20260507090834 42 320 3.0 7.0 0.00 0.00 0.00 63 1013.6
20260507090329 42 296 2.0 7.0 0.00 0.00 0.00 63 1013.5
20260507085829 42 296 2.0 5.0 0.00 0.00 0.00 62 1013.5
20260507085324 42 307 1.0 5.0 0.00 0.00 0.00 62 1013.5
20260507084858 42 296 2.0 5.0 0.00 0.00 0.00 62 1013.5
20260507084352 42 303 3.0 5.0 0.00 0.00 0.00 62 1013.7
20260507083825 42 329 2.0 5.0 0.00 0.00 0.00 62 1013.8
20260507083321 42 298 2.0 8.0 0.00 0.00 0.00 62 1013.8
20260507082830 42 327 3.0 8.0 0.00 0.00 0.00 61 1013.8
20260507082325 43 315 3.0 8.0 0.00 0.00 0.00 61 1013.9
20260507081835 43 328 3.0 8.0 0.00 0.00 0.00 61 1013.8
20260507081325 43 335 3.0 7.0 0.00 0.00 0.00 62 1013.8
20260507080818 43 313 4.0 8.0 0.00 0.00 0.00 61 1013.8
20260507080331 43 285 4.0 8.0 0.00 0.00 0.00 63 1013.8
20260507075820 43 304 2.0 5.0 0.00 0.00 0.00 63 1013.9
20260507075332 43 266 2.0 9.0 0.00 0.00 0.00 63 1013.9
20260507074830 43 284 3.0 9.0 0.00 0.00 0.00 62 1013.9
20260507074336 43 285 3.0 8.0 0.00 0.00 0.00 61 1013.9
20260507073817 43 279 3.0 9.0 0.00 0.00 0.00 63 1013.9
20260507073332 44 316 3.0 9.0 0.00 0.00 0.00 63 1014.0
20260507072828 44 315 4.0 8.0 0.00 0.00 0.00 61 1013.9
20260507072343 44 306 3.0 9.0 0.00 0.00 0.00 62 1013.9
20260507071818 44 297 4.0 9.0 0.00 0.00 0.00 61 1013.9
20260507071315 44 302 3.0 8.0 0.00 0.00 0.00 61 1013.9
20260507070847 44 302 3.0 11.0 0.00 0.00 0.00 61 1014.0
20260507070330 44 283 4.0 11.0 0.00 0.00 0.00 62 1014.0
20260507065826 44 313 4.0 9.0 0.00 0.00 0.00 61 1014.0
20260507065318 44 315 4.0 9.0 0.00 0.00 0.00 60 1014.1
20260507064830 44 282 4.0 9.0 0.00 0.00 0.00 60 1014.1
20260507064326 45 308 5.0 9.0 0.00 0.00 0.00 60 1014.2
20260507063819 45 291 4.0 11.0 0.00 0.00 0.00 60 1014.3
20260507063336 45 307 4.0 11.0 0.00 0.00 0.00 60 1014.3
20260507062825 45 286 3.0 10.0 0.00 0.00 0.00 60 1014.3
20260507062339 45 296 4.0 10.0 0.00 0.00 0.00 59 1014.2
20260507061831 45 292 4.0 10.0 0.00 0.00 0.00 59 1014.3
20260507061326 45 310 4.0 10.0 0.00 0.00 0.00 59 1014.3
20260507060840 45 308 5.0 11.0 0.00 0.00 0.00 60 1014.3
20260507060333 45 306 4.0 11.0 0.00 0.00 0.00 59 1014.3
20260507055842 45 275 4.0 11.0 0.00 0.00 0.00 60 1014.3
20260507055356 45 305 5.0 10.0 0.00 0.00 0.00 59 1014.4
20260507054828 45 289 4.0 10.0 0.00 0.00 0.00 59 1014.4
20260507054338 45 280 5.0 12.0 0.00 0.00 0.00 60 1014.4
20260507053842 45 277 6.0 12.0 0.00 0.00 0.00 60 1014.6
20260507053337 45 286 6.0 12.0 0.00 0.00 0.00 59 1014.4
20260507052824 45 314 4.0 11.0 0.00 0.00 0.00 58 1014.5
20260507052318 45 314 5.0 11.0 0.00 0.00 0.00 60 1014.5
20260507051831 46 303 6.0 11.0 0.00 0.00 0.00 59 1014.5
20260507051317 46 300 6.0 11.0 0.00 0.00 0.00 60 1014.5
20260507050832 45 304 6.0 11.0 0.00 0.00 0.00 59 1014.6
20260507050342 45 298 5.0 11.0 0.00 0.00 0.00 59 1014.6
20260507045829 45 298 6.0 10.0 0.00 0.00 0.00 60 1014.6
20260507045315 45 309 5.0 10.0 0.00 0.00 0.00 60 1014.5
20260507044830 45 283 4.0 9.0 0.00 0.00 0.00 62 1014.5
20260507044339 45 329 4.0 10.0 0.00 0.00 0.00 62 1014.6
20260507043828 45 309 4.0 10.0 0.00 0.00 0.00 62 1014.5
20260507043341 45 282 5.0 10.0 0.00 0.00 0.00 61 1014.4
20260507042832 45 295 4.0 8.0 0.00 0.00 0.00 61 1014.4
20260507042329 46 298 4.0 8.0 0.00 0.00 0.00 61 1014.4
20260507041826 46 284 4.0 11.0 0.00 0.00 0.00 62 1014.4
20260507041329 46 281 7.0 11.0 0.00 0.00 0.00 63 1014.4
20260507040840 46 277 5.0 9.0 0.00 0.00 0.00 62 1014.4
20260507040324 46 311 5.0 9.0 0.00 0.00 0.00 63 1014.4
20260507035843 45 270 4.0 12.0 0.00 0.00 0.00 64 1014.4
20260507035315 45 259 5.0 12.0 0.00 0.00 0.00 64 1014.4
20260507034832 45 281 5.0 12.0 0.00 0.00 0.00 64 1014.3
20260507034326 45 263 8.0 12.0 0.00 0.00 0.00 64 1014.3
20260507033318 45 277 7.0 12.0 0.00 0.00 0.00 64 1014.2
20260507032831 45 273 4.0 9.0 0.00 0.00 0.00 64 1014.2
20260507032320 45 282 5.0 9.0 0.00 0.00 0.00 63 1014.1
20260507031832 45 281 4.0 8.0 0.00 0.00 0.00 63 1014.2
20260507031325 45 259 4.0 8.0 0.00 0.00 0.00 62 1014.2
20260507030837 45 250 3.0 7.0 0.00 0.00 0.00 62 1014.4
20260507030329 45 271 3.0 7.0 0.00 0.00 0.00 62 1014.3
20260507025825 45 266 2.0 4.0 0.00 0.00 0.00 62 1014.3
20260507025338 45 260 1.0 4.0 0.00 0.00 0.00 62 1014.3
20260507024826 45 271 2.0 6.0 0.00 0.00 0.00 62 1014.3
20260507024324 45 267 3.0 7.0 0.00 0.00 0.00 61 1014.4
20260507023819 45 286 4.0 7.0 0.00 0.00 0.00 61 1014.4
20260507023334 45 273 3.0 6.0 0.00 0.00 0.00 61 1014.3
20260507022848 45 263 3.0 8.0 0.00 0.00 0.00 61 1014.3
20260507022320 45 261 3.0 9.0 0.00 0.00 0.00 61 1014.2
20260507021854 45 276 5.0 9.0 0.00 0.00 0.00 60 1014.3
20260507021328 45 205 4.0 7.0 0.00 0.00 0.00 60 1014.2
20260507020824 45 202 3.0 7.0 0.00 0.00 0.00 60 1014.1
20260507020316 45 201 4.0 7.0 0.00 0.00 0.00 61 1014.2
20260507015832 45 258 3.0 7.0 0.00 0.00 0.00 60 1014.2
20260507015327 45 232 3.0 7.0 0.00 0.00 0.00 60 1014.2
20260507014822 45 201 3.0 7.0 0.00 0.00 0.00 60 1014.1
20260507014330 46 199 3.0 8.0 0.00 0.00 0.00 59 1014.2
20260507013846 46 209 4.0 8.0 0.00 0.00 0.00 59 1014.2
20260507013329 46 245 4.0 8.0 0.00 0.00 0.00 59 1014.2
20260507012822 46 227 3.0 8.0 0.00 0.00 0.00 59 1014.1
20260507012337 46 225 4.0 8.0 0.00 0.00 0.00 57 1014.1
20260507011830 46 205 6.0 7.0 0.00 0.00 0.00 57 1014.1
20260507011329 46 218 4.0 7.0 0.00 0.00 0.00 57 1014.1
20260507010842 46 209 3.0 7.0 0.00 0.00 0.00 56 1014.1
20260507010314 46 201 3.0 6.0 0.00 0.00 0.00 56 1014.2
20260507005830 46 250 2.0 6.0 0.00 0.00 0.00 54 1014.2
20260507005340 46 248 3.0 5.0 0.00 0.00 0.00 54 1014.2
20260507004825 46 238 1.0 4.0 0.00 0.00 0.00 54 1014.1
20260507004340 46 269 1.0 4.0 0.00 0.00 0.00 53 1014.1
20260507003831 47 265 2.0 5.0 0.00 0.00 0.00 53 1014.1
20260507003326 47 225 2.0 6.0 0.00 0.00 0.00 53 1014.1
20260507002815 47 203 2.0 6.0 0.00 0.00 0.00 52 1014.0
20260507002352 47 167 2.0 5.0 0.00 0.00 0.00 52 1013.8
20260507001826 47 244 2.0 4.0 0.00 0.00 0.00 53 1013.8
20260507001341 47 192 1.0 3.0 0.00 0.00 0.00 52 1013.8
20260507000828 47 263 0.0 4.0 0.00 0.00 0.00 54 1013.8
20260507000324 47 251 2.0 4.0 0.00 0.00 0.00 52 1013.7
20260506235831 47 191 2.0 4.0 0.00 0.00 0.00 52 1013.7
20260506235344 47 233 1.0 5.0 0.00 0.00 0.00 54 1013.7
20260506234840 47 221 3.0 5.0 0.00 0.00 0.00 53 1013.8
20260506234330 47 223 3.0 6.0 0.00 0.00 0.00 53 1013.8
20260506233843 47 215 2.0 6.0 0.00 0.00 0.00 54 1013.8
20260506233328 47 217 3.0 7.0 0.00 0.00 0.00 53 1013.8
20260506232824 47 210 3.0 7.0 0.00 0.00 0.00 53 1013.8
20260506232338 47 224 2.0 6.0 0.00 0.00 0.00 52 1013.9
20260506231824 47 203 3.0 6.0 0.00 0.00 0.00 55 1013.8
20260506231356 47 227 3.0 6.0 0.00 0.00 0.00 55 1013.9
20260506230821 47 226 3.0 8.0 0.00 0.00 0.00 54 1013.9
20260506230320 47 216 4.0 8.0 0.00 0.00 0.00 53 1013.9
20260506225832 47 195 3.0 7.0 0.00 0.00 0.00 52 1013.9
20260506225320 47 218 4.0 8.0 0.00 0.00 0.00 53 1013.9
20260506224834 47 207 5.0 8.0 0.00 0.00 0.00 52 1014.0
20260506224328 47 211 3.0 9.0 0.00 0.00 0.00 55 1013.8
20260506223819 47 226 4.0 9.0 0.00 0.00 0.00 55 1013.8
20260506223332 47 217 5.0 8.0 0.00 0.00 0.00 52 1013.8
20260506222822 47 243 5.0 10.0 0.00 0.00 0.00 55 1013.8
20260506222318 47 207 5.0 10.0 0.00 0.00 0.00 52 1013.9
20260506221834 48 227 4.0 9.0 0.00 0.00 0.00 53 1013.9
20260506221339 48 219 5.0 10.0 0.00 0.00 0.00 52 1013.8
20260506220827 48 210 5.0 10.0 0.00 0.00 0.00 52 1013.8
20260506220332 47 205 6.0 10.0 0.00 0.00 0.00 52 1013.9
20260506215840 47 219 6.0 9.0 0.00 0.00 0.00 53 1013.9
20260506215326 48 196 5.0 10.0 0.00 0.00 0.00 52 1013.9
20260506214833 48 233 4.0 11.0 0.00 0.00 0.00 53 1013.9
20260506214328 48 256 7.0 11.0 0.00 0.00 0.00 51 1013.8
20260506213822 48 210 6.0 10.0 0.00 0.00 0.00 52 1013.7
20260506213357 48 228 5.0 10.0 0.00 0.00 0.00 52 1013.7
20260506212829 48 219 4.0 11.0 0.00 0.00 0.00 53 1013.8
20260506212320 48 218 7.0 12.0 0.00 0.00 0.00 51 1013.7
20260506211850 49 205 7.0 12.0 0.00 0.00 0.00 50 1013.8
20260506211319 49 225 6.0 11.0 0.00 0.00 0.00 50 1013.8
20260506210813 49 196 6.0 12.0 0.00 0.00 0.00 51 1013.8
20260506210329 49 224 6.0 12.0 0.00 0.00 0.00 49 1013.9
20260506205815 49 223 6.0 12.0 0.00 0.00 0.00 49 1014.0
20260506205331 49 232 5.0 12.0 0.00 0.00 0.00 50 1013.9
20260506204828 49 225 7.0 10.0 0.00 0.00 0.00 50 1014.0
20260506204323 48 198 6.0 10.0 0.00 0.00 0.00 50 1014.1
20260506203819 48 218 7.0 10.0 0.00 0.00 0.00 49 1014.1
20260506203332 49 205 6.0 12.0 0.00 0.00 0.00 49 1014.1
20260506202829 49 225 6.0 12.0 0.00 0.00 0.00 47 1014.1
20260506202341 50 222 7.0 12.0 0.00 0.00 0.00 48 1014.2
20260506201816 50 152 5.0 10.0 0.00 0.00 0.00 49 1014.2
20260506201400 50 200 6.0 11.0 0.00 0.00 0.00 48 1014.2
20260506200825 50 220 6.0 11.0 0.00 0.00 0.00 48 1014.3
20260506200341 50 231 5.0 12.0 0.00 0.00 0.00 50 1014.2
20260506195827 49 241 6.0 12.0 0.00 0.00 0.00 49 1014.2
20260506195323 48 236 7.0 10.0 0.00 0.00 0.00 49 1014.3
20260506194840 49 224 6.0 11.0 0.00 0.00 0.00 49 1014.4
20260506194329 50 231 7.0 11.0 0.00 0.00 0.00 49 1014.3
20260506193813 50 216 6.0 11.0 0.00 0.00 0.00 47 1014.3
20260506193330 50 224 5.0 10.0 0.00 0.00 0.00 48 1014.3
20260506192846 49 215 6.0 10.0 0.00 0.00 0.00 47 1014.2
20260506192320 49 182 6.0 10.0 0.00 0.00 0.00 47 1014.3
20260506191829 49 250 5.0 10.0 0.00 0.00 0.00 48 1014.3
20260506191326 50 251 5.0 10.0 0.00 0.00 0.00 47 1014.2
20260506190820 50 255 4.0 9.0 0.00 0.00 0.00 50 1014.1
20260506190319 50 221 6.0 9.0 0.00 0.00 0.00 46 1014.2
20260506185827 50 215 4.0 8.0 0.00 0.00 0.00 51 1014.2
20260506185317 49 254 5.0 10.0 0.00 0.00 0.00 48 1014.1
20260506184831 49 190 6.0 10.0 0.00 0.00 0.00 49 1014.1
20260506184328 49 182 5.0 9.0 0.00 0.00 0.00 50 1014.1
20260506183816 49 221 5.0 9.0 0.00 0.00 0.00 50 1014.1
20260506183331 50 223 4.0 9.0 0.00 0.00 0.00 54 1014.1
20260506182827 48 257 4.0 9.0 0.00 0.00 0.00 54 1014.1
20260506182323 48 205 6.0 10.0 0.00 0.00 0.00 55 1014.0
20260506181818 49 234 5.0 8.0 0.00 0.00 0.00 57 1014.0
20260506181351 49 240 4.0 8.0 0.00 0.00 0.00 57 1014.2
20260506180818 48 231 5.0 8.0 0.00 0.00 0.00 56 1014.1
20260506180329 48 193 4.0 7.0 0.00 0.00 0.00 57 1014.1
20260506175819 48 200 4.0 7.0 0.00 0.00 0.00 57 1014.2
20260506175334 48 234 4.0 8.0 0.00 0.00 0.00 57 1014.4
20260506174824 48 197 5.0 8.0 0.00 0.00 0.00 57 1014.5
20260506174317 48 239 4.0 7.0 0.00 0.00 0.00 59 1014.4
20260506173832 48 236 3.0 7.0 0.00 0.00 0.00 62 1014.6
20260506173328 48 250 4.0 7.0 0.00 0.00 0.00 60 1014.6
20260506172857 47 241 4.0 7.0 0.00 0.00 0.00 62 1014.7
20260506172329 47 213 5.0 7.0 0.00 0.00 0.00 61 1014.8
20260506171844 47 228 4.0 7.0 0.00 0.00 0.00 61 1014.7
20260506171403 47 234 3.0 6.0 0.00 0.00 0.00 63 1014.7
20260506170829 47 207 4.0 6.0 0.00 0.00 0.00 63 1014.7
20260506170322 46 194 4.0 6.0 0.00 0.00 0.00 64 1014.8
20260506165838 46 229 3.0 7.0 0.00 0.00 0.00 66 1014.7
20260506165350 46 209 4.0 7.0 0.00 0.00 0.00 66 1014.7
20260506164829 46 240 4.0 7.0 0.00 0.00 0.00 67 1014.7
20260506164326 46 223 4.0 7.0 0.00 0.00 0.00 68 1014.8
20260506163819 45 229 4.0 8.0 0.00 0.00 0.00 69 1014.8
20260506163334 45 219 5.0 8.0 0.00 0.00 0.00 68 1014.8
20260506162823 45 280 5.0 8.0 0.00 0.00 0.00 67 1014.8
20260506162339 46 232 5.0 7.0 0.00 0.00 0.00 68 1014.8
20260506161827 45 263 4.0 8.0 0.00 0.00 0.00 68 1014.8
20260506161325 45 252 5.0 9.0 0.00 0.00 0.00 69 1014.7
20260506160816 45 215 5.0 9.0 0.00 0.00 0.00 69 1014.7
20260506160329 45 258 3.0 9.0 0.00 0.00 0.00 69 1014.7
20260506155823 44 193 4.0 9.0 0.00 0.00 0.00 70 1014.7
20260506155341 44 245 5.0 8.0 0.00 0.00 0.00 69 1014.7
20260506154849 44 253 4.0 7.0 0.00 0.00 0.00 70 1014.7
20260506154323 44 217 4.0 9.0 0.00 0.00 0.00 71 1014.7
20260506153831 44 201 4.0 9.0 0.00 0.00 0.00 71 1014.7
20260506153323 44 279 5.0 10.0 0.00 0.00 0.00 71 1014.7
20260506152819 44 234 4.0 7.0 0.00 0.00 0.00 70 1014.7
20260506152338 44 196 5.0 7.0 0.00 0.00 0.00 70 1014.7
20260506151828 44 269 4.0 8.0 0.00 0.00 0.00 70 1014.7
20260506151345 44 269 4.0 10.0 0.00 0.00 0.00 70 1014.6
20260506150850 44 207 4.0 10.0 0.00 0.00 0.00 69 1014.6
20260506150325 44 217 4.0 9.0 0.00 0.00 0.00 70 1014.5
20260506145817 44 263 4.0 9.0 0.00 0.00 0.00 70 1014.4
20260506145330 44 250 5.0 8.0 0.00 0.00 0.00 69 1014.4
20260506144844 45 267 5.0 8.0 0.00 0.00 0.00 69 1014.4
20260506144320 45 209 6.0 8.0 0.00 0.00 0.00 67 1014.4
20260506143831 45 257 5.0 7.0 0.00 0.00 0.00 66 1014.3
20260506143321 45 276 3.0 9.0 0.00 0.00 0.00 66 1014.2
20260506142837 45 269 5.0 9.0 0.00 0.00 0.00 66 1014.3
20260506142326 45 265 5.0 9.0 0.00 0.00 0.00 64 1014.1